User: anonymous   Login
Location: Nag� el Ma?a??a
(24.0667°N, 32.8833°E)
Time: 10:26:25
(UTC+00:00)
Language:

ALOS - Orbit

View from above orbital plane
View from above orbital plane
View from above satellite
View from above satellite

Ground track
Ground track

The orbit data is extracted from the following two-line orbital elements,

1 28931U 06002A   21340.99159712  .00000306  00000-0  68525-4 0  9993
2 28931  97.9106 308.3862 0001108 115.6467 244.4841 14.62934177846286
Epoch (UTC): 06 December 2021 23:47:53
Eccentricity: 0.0001108
inclination: 97.9106°
perigee height: 683 km
apogee height: 684 km
right ascension of ascending node: 308.3862°
argument of perigee: 115.6467°
revolutions per day: 14.62934177
mean anomaly at epoch: 244.4841°
orbit number at epoch: 84628

The dashed part of the orbit path shows where the satellite is in the earth's shadow,  

DLR